DLH840 KBOS-EDDF

Flight info

Callsign DLH840
Flight time N/A
Altitude 35000
Route LBSTA8 LBSTA DCT ALLEX N565B TUDEP/M085F370 DCT 52N050W 53N040W 54N030W 54N020W DCT MALOT DCT GISTI/N0479F370 DCT ENJEX/N0490F390 DCT ADHAV DCT AXNEF DCT ZIPWE DCT OZZIL DCT SAWPE Q63 CPT UL9 BIG L607 KONAN UL607 KOK DCT SPI T180 NIVNU T847 IMCOM IMCOM1A
Aircraft A388/J-SADE2E3FGHIJ3J4J5M1RWXY/LB1D1

Departure

Time 2026-05-06 15:43
Airport Boston Logan International Airport (KBOS)

Arrival

Time N/A
Airport Frankfurt Main Airport (EDDF)
Time Latitude Longitude Altitude Speed Heading
2026-05-06 15:33 42.37095 -71.01848 33 ft 0 kts 211°
2026-05-06 15:35 42.37107 -71.01838 33 ft 4 kts 211°
2026-05-06 15:35 42.37130 -71.01821 32 ft 4 kts 206°
2026-05-06 15:36 42.37147 -71.01816 32 ft 2 kts 178°
2026-05-06 15:36 42.37157 -71.01822 31 ft 2 kts 148°
2026-05-06 15:36 42.37165 -71.01832 31 ft 2 kts 134°
2026-05-06 15:36 42.37169 -71.01838 31 ft 0 kts 131°
2026-05-06 15:37 42.37156 -71.01815 32 ft 9 kts 125°
2026-05-06 15:37 42.37146 -71.01681 34 ft 21 kts 89°
2026-05-06 15:38 42.37065 -71.01514 32 ft 20 kts 137°
2026-05-06 15:38 42.36959 -71.01377 31 ft 22 kts 136°
2026-05-06 15:38 42.36917 -71.01233 30 ft 18 kts 76°
2026-05-06 15:38 42.37008 -71.01095 29 ft 23 kts 28°
2026-05-06 15:39 42.37173 -71.00985 27 ft 29 kts 25°
2026-05-06 15:39 42.37370 -71.00872 27 ft 33 kts 21°
2026-05-06 15:39 42.37593 -71.00764 30 ft 35 kts 19°
2026-05-06 15:39 42.37795 -71.00668 34 ft 17 kts 20°
2026-05-06 15:40 42.37826 -71.00646 34 ft 9 kts 46°
2026-05-06 15:40 42.37837 -71.00603 33 ft 0 kts 92°
2026-05-06 15:41 42.37837 -71.00596 33 ft 5 kts 92°
2026-05-06 15:41 42.37803 -71.00494 31 ft 15 kts 161°
2026-05-06 15:42 42.37725 -71.00505 31 ft 0 kts 201°
2026-05-06 15:42 42.37625 -71.00556 32 ft 48 kts 199°
2026-05-06 15:42 42.37072 -71.00821 27 ft 116 kts 199°
2026-05-06 15:42 42.36161 -71.01259 42 ft 156 kts 199°
2026-05-06 15:43 42.35117 -71.01716 452 ft 159 kts 190°
2026-05-06 15:43 42.34065 -71.01561 1201 ft 152 kts 160°
2026-05-06 15:43 42.33201 -71.00625 1709 ft 171 kts 135°
2026-05-06 15:43 42.32460 -70.99276 1993 ft 188 kts 140°
2026-05-06 15:44 42.31587 -70.97775 2285 ft 217 kts 131°
2026-05-06 15:44 42.31126 -70.95670 2798 ft 253 kts 97°
2026-05-06 15:44 42.31396 -70.93260 3517 ft 269 kts 83°
2026-05-06 15:44 42.31844 -70.90704 3933 ft 290 kts 83°
2026-05-06 15:45 42.32297 -70.87965 4438 ft 305 kts 84°
2026-05-06 15:45 42.32740 -70.85167 5307 ft 302 kts 84°
2026-05-06 15:45 42.33172 -70.82360 6005 ft 308 kts 85°
2026-05-06 15:45 42.33602 -70.79497 6706 ft 312 kts 85°
2026-05-06 15:46 42.34249 -70.76656 7306 ft 327 kts 65°
2026-05-06 15:46 42.35687 -70.74227 7966 ft 336 kts 38°
2026-05-06 15:46 42.37725 -70.72683 8625 ft 338 kts 13°
2026-05-06 15:46 42.40016 -70.72007 9282 ft 338 kts
2026-05-06 15:47 42.42328 -70.71489 9906 ft 343 kts
2026-05-06 15:47 42.44692 -70.70823 10395 ft 354 kts
2026-05-06 15:47 42.47173 -70.70225 10573 ft 371 kts
2026-05-06 15:47 42.48597 -70.69848 10685 ft 381 kts
2026-05-06 15:48 42.50260 -70.69374 10805 ft 392 kts
2026-05-06 15:48 42.50937 -70.69174 10845 ft 396 kts
2026-05-06 15:48 42.53582 -70.68375 11214 ft 405 kts
2026-05-06 15:48 42.54265 -70.68166 11363 ft 406 kts
2026-05-06 15:49 42.56990 -70.67329 12019 ft 407 kts
2026-05-06 15:49 42.59749 -70.66485 12650 ft 408 kts
2026-05-06 15:49 42.62536 -70.65639 13252 ft 411 kts
2026-05-06 15:49 42.65333 -70.64793 13854 ft 413 kts
2026-05-06 15:50 42.68155 -70.63966 14364 ft 414 kts
2026-05-06 15:50 42.71002 -70.63351 14889 ft 416 kts
2026-05-06 15:50 42.73873 -70.62726 15394 ft 419 kts